Location: Corralito
(14.1667°N, 87.1833°W)
Time: 15:55:56
(UTC+00:00)

Cosmos 2333 Rocket - Pass Details

Date: 07 June 2020
Orbit: 838 x 863 km, 70.8° (Epoch: 10 July)

Event Time Altitude Azimuth Distance (km) Brightness Sun altitude
Exits shadow 09:25:42 22° 311° (NW) 1,747 3.7 -25.1°
Drops below altitude 10° 09:28:51 10° 343° (NNW) 2,451 4.8 -24.5°
Sets 09:31:46 0° 357° (N) 3,389 5.7 -23.9°
